Miscellaneous Local Product
Issued by NWS Hastings, NE

Home | Current Version | Previous Version | Graphics & Text | Print | Product List | Glossary On
Versions: 1 2 3 4 5 6 7 8 9 10 11 12 13 14 15 16 17 18 19 20 21 22 23 24 25 26 27 28 29 30 31 32 33 34 35 36 37 38 39 40 41 42 43 44 45 46 47 48 49 50
061
AXUS43 KGID 230702
MISGRI

GID CWA HOURLY WEATHER ROUNDUP
NATIONAL WEATHER SERVICE HASTINGS NE
200 AM CDT MON MAY 23 2016

NOTE: "FAIR" INDICATES FEW OR NO CLOUDS BELOW 12,000 FEET WITH NO
SIGNIFICANT WEATHER AND/OR OBSTRUCTIONS TO VISIBILITY.

...SOUTH CENTRAL NEBRASKA...

CITY           SKY/WX    TMP DP  RH WIND       PRES   REMARKS
GRAND ISLAND   CLOUDY    70  64  81 S25G36    29.72F
HASTINGS       PTCLDY    70  64  81 S23G35    29.72F
KEARNEY        PTCLDY    70  63  78 S23G32    29.77R
ORD            CLOUDY    63  57  81 NW17      29.76R
YORK           CLOUDY    70  64  83 S20G26    29.77F
AURORA         CLOUDY    70  65  84 S21G28    29.75F
LEXINGTON      RAIN      59  56  89 NW8       29.81R
HOLDREGE       MOCLDY    69  64  86 S15G29    29.72R
HEBRON         CLOUDY    70  64  80 S14G24    29.80R

...NEBRASKA PANHANDLE...

CITY           SKY/WX    TMP DP  RH WIND       PRES   REMARKS
CHADRON        PTCLDY    51  43  74 CALM      29.80R
ALLIANCE       CLOUDY    50  45  83 S5        29.85R
SCOTTSBLUFF    CLOUDY    50  43  77 CALM      29.86R
SIDNEY         MOCLDY    52  41  66 NW8       29.89S

...WESTERN AND NORTH CENTRAL NEBRASKA...

CITY           SKY/WX    TMP DP  RH WIND       PRES   REMARKS
VALENTINE      CLOUDY    54  49  83 W3        29.80R
AINSWORTH      CLOUDY    55  51  83 NW6       29.78R
BROKEN BOW     LGT RAIN  57  53  86 N16G28    29.80R
IMPERIAL       LGT RAIN  55  49  80 NW6       29.86R
NORTH PLATTE   MOCLDY    55  49  80 N3        29.82R
MCCOOK         TSTM      60  50  69 NW20G30   29.83R

...EASTERN NEBRASKA...

CITY           SKY/WX    TMP DP  RH WIND       PRES   REMARKS
NORFOLK        CLOUDY    71  62  73 S23G29    29.74F
SO SIOUX CITY  MOCLDY    70  60  70 S16G23    29.77F
TEKAMAH        CLOUDY    70  60  70 S18       29.79F
COLUMBUS       PTCLDY    70  57  64 S22       29.77F
ALBION         CLOUDY    71  63  76 S24G32    29.71F
OMAHA EPPLEY   CLOUDY    69  60  73 S15       29.82F
OFFUTT AFB     CLOUDY    70  61  72 SE17      29.82F
MILLARD        PTCLDY    71  62  72 SE15G21   29.82F
LINCOLN        MOCLDY    71  63  75 S20G26    29.81S
NEBRASKA CITY  CLOUDY    67  59  75 S14       29.85F
BEATRICE       CLOUDY    70  63  78 S17G25    29.81F
FALLS CITY     CLOUDY    68  59  73 SE13      29.87R

...NORTHERN KANSAS...

CITY           SKY/WX    TMP DP  RH WIND       PRES   REMARKS
GOODLAND       CLEAR     64  55  72 S23G30    29.80R
HILL CITY      PTCLDY    71  63  75 SW24G37   29.71R
NORTON         SUNNY     70  61  73 S16G24    29.72S
PHILLIPSBURG   CLOUDY    72  64  78 SE12G17   29.74R
SMITH CENTER   CLOUDY    68  64  88 S17G25    29.77S
BELOIT         MOCLDY    70  64  83 SE16G25   29.75F
HAYS           CLOUDY    70  61  73 S17G24    29.75F
RUSSELL        CLOUDY    69  65  86 S22       29.74F
CONCORDIA      MOCLDY    69  63  81 S17       29.79S
SALINA         PTCLDY    71  65  81 S18       29.80F
TOPEKA         CLOUDY    68  61  78 SE9       29.88F



USA.gov is the U.S. government's official web portal to all federal, state and local government web resources and services.